Weather Roundup
Issued by NWS Corpus Christi, TX

Home | Current Version | Previous Version | Text Only | Print | Product List | Glossary On
Versions: 1 2 3 4 5 6 7 8 9 10 11 12 13 14 15 16 17 18 19 20 21 22 23 24 25 26 27 28 29 30 31 32 33 34 35 36 37 38 39 40 41 42 43 44 45 46 47 48 49 50
000
ASUS44 KCRP 222110
HRRCRP

SOUTH TEXAS REGIONAL WEATHER ROUNDUP
NATIONAL WEATHER SERVICE CORPUS CHRISTI TX
400 PM CDT MON MAY 22 2017


TXZ229>244-222200-
...CORPUS CHRISTI AREA OBSERVATIONS...

CITY           SKY/WX    TMP DP  RH WIND       PRES   REMARKS
CORPUS CHRISTI CLOUDY    83  73  72 CALM      29.85F
NAS CORPUS CHR CLOUDY    82  75  79 CALM      29.85F
ROCKPORT       PTSUNNY   83  71  67 SE6       29.84F
ALICE          MOSUNNY   87  72  60 E10       29.84F HX  93
ORANGE GROVE   PTSUNNY   88  72  58 E8        29.86F HX  94
FALFURRIAS     MOSUNNY   85  74  68 E12       29.84F HX  93
$$

...VICTORIA AREA OBSERVATIONS...

CITY           SKY/WX    TMP DP  RH WIND       PRES   REMARKS
VICTORIA       PTSUNNY   83  73  72 NE13      29.86F
BEEVILLE       PTSUNNY   87  73  61 N3        29.86F HX  95
PLEASANTON     CLOUDY    81  67  63 NE8       29.90F
SAN ANTONIO    CLOUDY    76  66  71 NE9       29.92F
$$

...LAREDO AREA OBSERVATIONS...

CITY           SKY/WX    TMP DP  RH WIND       PRES   REMARKS
LAREDO         CLOUDY    85  71  63 CALM      29.87F HX  90
COTULLA        CLOUDY    84  68  58 E8        29.88F
DEL RIO        CLOUDY    74  68  81 CALM      29.92F
MCALLEN        MOSUNNY   93  75  55 N10       29.80F HX 104
HEBBRONVILLE   CLOUDY    85  66  54 E6        29.87F
$$

...OTHER TEXAS OBSERVATIONS...

CITY           SKY/WX    TMP DP  RH WIND       PRES   REMARKS
BROWNSVILLE    MOSUNNY   95  72  47 SE14G24   29.79F HX 103
HOUSTON        CLOUDY    72  68  87 N9        29.90F
COL. STATION   CLOUDY    73  66  78 NE14      29.93F
AUSTIN         CLOUDY    75  66  73 E9        29.93F
WACO           PTSUNNY   77  65  66 VRB7      29.95F
FORT WORTH     CLOUDY    78  60  53 SE6       29.94F
WICHITA FALLS  PTSUNNY   75  58  55 VRB6      29.97F
LUBBOCK        PTSUNNY   78  55  44 W10       29.99F
EL PASO        MOSUNNY   89  29  11 VRB7      29.94F
$$

...MARINE OBSERVATIONS...

STATION/POSITION TIME  SKY/WX   TEMP    WIND        PRES    VSBY  WAVE   SWELL
                                AIR SEA DIR/SP/G                  HT/PER HT/PER
                 (UTC)          (F)     (DEG/KT/KT) (MB)    (MI)  (FT/S) (FT/S)
PORT ARANSAS     2100            78 81  160/  7/  8 1010.9F
BUOY 90 E PORT A 1950            79 79  160/ 10/ 12 1011.2          8/ 9   8/ 9
BUOY 45 SE BAFFI 2050            78      70/ 12/ 16 1009.9F         5/ 8   3/ 8
BUOY 200 E PT IS 1950            80 80  150/ 10/ 12 1012.5          7/ 7   7/ 7
BUOY 15 E GALVES 1950            77 79  170/ 14/ 17 1011.9          4/ 5   2/ 7
$$



USA.gov is the U.S. government's official web portal to all federal, state and local government web resources and services.